Tracking 22287 objects as of 27-Jan-2021
HD Live streaming from Space Station
objects crossing your sky now

USA 160

Track USA 160 now!
10-day predictions
USA 160 is classified as:


NORAD ID: 26905
Int'l Code: 2001-040A
Perigee: 747.8 km
Apogee: 1,479.1 km
Inclination: 63.4 °
Period: 107.4 minutes
Semi major axis: 7484 km
RCS: Unknown
Launch date: September 8, 2001
Source: United States (US)
Launch site: AIR FORCE WESTERN TEST RANGE (AFWTR)
aabbcc
Your satellite tracking list
Your tracking list is empty




NASA's NSSDC Master Catalog

Two Line Element Set (TLE):
1 26905U 01040A   21022.75082389 0.00000040  00000-0  35812-4 0    06
2 26905  63.4052 270.4931 0488523   1.4171 358.5829 13.40790623    09
Source of the keplerian elements: McCants